Probability
0 0 0 0 0 0 0 0 0 0 0 0 0 0 0 0 0 0 0 0 0 0 0 0 0 0 0 0 0 0 0 0 0 0 0 0 0 0 0 0 0 0 0 0
0 0 0 0 0 0 0 0 0 0 0 0 0 0 0 0 0 0 0 0 0 0 0 0 0 0 0 0 0 0 0 0 0 0 0 0 0 0 0 0 0 0 0 0
0 0 0 0 0 0 0 0 0 0 0 0 0 0 0 0 0 0 0 0 0 0 0 0 0 0 0 0 0 0 0 0 0 0 0 0 0 0 0 0 0 0 0 0
0 0 0 0 0 0 0 0 0 0 0 0 0 0 0 0 0 0 0 0 0 0 0 0 0 0 0 0 0 0 0 0 0 0 0 0 0 0 0 0 0 0 0 0
0 0 0 0 0 0 0 0 0 0 0 0 0 0 0 0 0 0 0 0 0 0 0 0 0 0 0 0 0 0 0 0 0 0 0 0 0 0 0 0 0 0 0 0
0 0 0 0 0 0 0 0 0 0 0 0 0 0 0 0 0 0 0 0 0 0 0 0 0 0 0 0 0 0 0 0 0 0 0 0 0 0 0 0 0 0 0 0
0 0 0 0 0 0 0 0 0 0 0 0 0 0 0 0 0 0 0 0 0 0 0 0 0 0 0 0 0 0 0 0 0 0 0 0 0 0 0 0 0 0 0 0
0 0 0 0 0 0 0 0 0 0 0 0 0 0 0 0 0 0 0 0 0 0 0 0 0 0 0 0 0 0 0 0 0 0 0 0 0 0 0 0 0 0 0 0
0 0 0 0 0 0 0 0 0 0 0 0 0 0 0 0 0 0 0 0 0 0 0 0 0 0 0 0 0 0 0 0 0 0 0 0 0 0 0 0 0 0 0 0
0 0 0 0 0 0 0 0 0 0 0 0 0 0 0 0 0 0 0 0 0 0 0 0 0 0 0 0 0 0 0 0 0 0 0 0 0 0 0 0 0 0 0 0
0 0 0 0 0 0 0 0 0 0 0 0 0 0 0 0 0 0 0 0 0 0 0 0 0 0 0 0 0 0 0 0 0 0 0 0 0 0 0 0 0 0 0 0
0 0 0 0 0 0 0 0 0 0 0 0 0 0 0 0 0 0 0 0 0 0 0 0 0 0 0 0 0 0 0 0 0 0 0 0 0 0 0 0 0 0 0 0
0 0 0 0 0 0 0 0 0 0 0 0 0 0 0 0 0 0 0 0 0 0 0 0 0 0 0 0 0 0 0 0 0 0 0 0 0 0 0 0 0 0 0 0
0 0 0 0 0 0 0 0 0 0 0 0 0 0 0 0 0 0 0 0 0 0 0 0 0 0 0 0 0 0 0 0 0 0 0 0 0 0 0 0 0 0 0 0
0 0 0 0 0 0 0 0 0 0 0 0 0 0 0 0 0 0 0 0 0 0 0 0 0 0 0 0 0 0 0 0 0 0 0 0 0 0 0 0 0 0 0 0
0 0 0 0 0 0 0 0 0 0 0 0 0 0 0 0 0 0 0 0 0 0 0 0 0 0 0 0 0 0 0 0 0 0 0 0 0 0 0 0 0 0 0 0
0 0 0 0 0 0 0 0 0 0 0 0 0 0 0 0 0 0 0 0 0 0 0 0 0 0 0 0 0 0 0 0 0 0 0 0 0 0 0 0 0 0 0 0
0 0 0 0 0 0 0 0 0 0 0 0 0 0 0 0 0 0 0 0 0 0 0 0 0 0 0 0 0 0 0 0 0 0 0 0 0 0 0 0 0 0 0 0
0 0 0 0 0 0 0 0 0 0 0 0 0 0 0 0 0 0 0 0 0 0 0 0 0 0 0 0 0 0 0 0 0 0 0 0 0 0 0 0 0 0 0 0
0 0 0 0 0 0 0 0 0 0 0 0 0 0 0 0 0 0 0 0 0 0 0 0 0 0 0 0 0 0 0 0 0 0 0 0 0 0 0 0 0 0 0 0
0 0 0 0 0 0 0 0 0 0 0 0 0 0 0 0 0 0 0 0 0 0 0 0 0 0 0 0 0 0 0 0 0 0 0 0 0 0 0 0 0 0 0 0
0 0 0 0 0 0 0 0 0 0 0 0 0 0 0 0 0 0 0 0 0 0 0 0 0 0 0 0 0 0 0 0 0 0 0 0 0 0 0 0 0 0 0 0
0 0 0 0 0 0 0 0 0 0 0 0 0 0 0 0 0 0 0 0 0 0 0 0 0 0 0 0 0 0 0 0 0 0 0 0 0 0 0 0 0 0 0 0
0 0 0 0 0 0 0 0 0 0 0 0 0 0 0 0 0 0 0 0 0 0 0 0 0 0 0 0 0 0 0 0 0 0 0 0 0 0 0 0 0 0 0 0
0 0 0 0 0 0 0 0 0 0 0 0 0 0 0 0 0 0 0 0 0 0 0 0 0 0 0 0 0 0 0 0 0 0 0 0 0 0 0 0 0 0 0 0
0 0 0 0 0 0 0 0 0 0 0 0 0 0 0 0 0 0 0 0 0 0 0 0 0 0 0 0 0 0 0 0 0 0 0 0 0 0 0 0 0 0 0 0
0 0 0 0 0 0 0 0 0 0 0 0 0 0 0 0 0 0 0 0 0 0 0 0 0 0 0 0 0 0 0 0 0 0 0 0 0 0 0 0 0 0 0 0
Height
5598 5605 5610 5616 5622 5628 5632 5637 5643 5649 5653 5658 5660 5661 5663 5665 5666 5668 5669 5670 5671 5671 5671 5672 5672 5672 5672 5673 5673 5673 5673 5673 5672 5672 5671 5670 5670 5669 5667 5666 5664 5662 5660 5657
5588 5595 5600 5604 5611 5618 5624 5630 5635 5640 5645 5651 5652 5653 5655 5657 5659 5661 5662 5662 5663 5663 5664 5664 5664 5665 5665 5665 5665 5665 5664 5664 5664 5663 5662 5662 5661 5659 5658 5656 5654 5652 5649 5646
5580 5587 5590 5594 5603 5610 5617 5622 5628 5632 5640 5642 5644 5646 5648 5650 5651 5653 5654 5655 5656 5656 5656 5657 5657 5657 5657 5657 5657 5657 5656 5656 5655 5655 5654 5653 5651 5650 5648 5646 5644 5642 5639 5636
5571 5577 5579 5592 5599 5603 5609 5615 5620 5625 5630 5633 5636 5638 5640 5642 5644 5646 5647 5647 5648 5648 5649 5649 5649 5649 5649 5649 5649 5649 5648 5648 5647 5646 5645 5643 5642 5640 5638 5636 5634 5631 5628 5624
5562 5566 5573 5583 5590 5596 5601 5607 5613 5617 5621 5625 5628 5630 5633 5635 5636 5638 5639 5640 5640 5641 5641 5642 5642 5641 5641 5641 5641 5640 5640 5639 5638 5637 5636 5634 5632 5630 5628 5626 5623 5620 5617 5613
5554 5559 5566 5579 5585 5589 5594 5598 5606 5609 5613 5617 5619 5622 5627 5627 5628 5630 5631 5632 5633 5633 5634 5634 5634 5634 5633 5633 5633 5632 5632 5631 5629 5628 5626 5624 5622 5620 5618 5615 5612 5609 5606 5601
5546 5552 5561 5571 5577 5581 5587 5595 5598 5601 5605 5608 5611 5615 5618 5619 5621 5622 5623 5625 5625 5626 5626 5626 5626 5626 5625 5625 5625 5624 5623 5621 5620 5619 5617 5615 5612 5610 5607 5605 5601 5598 5594 5590
5538 5546 5558 5565 5570 5576 5582 5586 5590 5593 5596 5600 5603 5606 5609 5611 5613 5615 5616 5617 5618 5618 5618 5618 5618 5618 5617 5617 5616 5615 5614 5612 5611 5609 5607 5604 5602 5599 5597 5594 5590 5586 5582 5577
5535 5546 5554 5558 5564 5569 5573 5577 5581 5585 5589 5592 5596 5598 5601 5603 5605 5607 5608 5609 5610 5610 5610 5610 5610 5610 5609 5608 5607 5606 5604 5603 5601 5599 5596 5594 5592 5589 5586 5582 5578 5574 5570 5565
5527 5537 5545 5551 5556 5561 5565 5570 5574 5578 5582 5585 5588 5591 5594 5596 5598 5599 5600 5601 5602 5602 5602 5602 5602 5601 5600 5599 5598 5596 5595 5593 5591 5589 5586 5584 5581 5577 5574 5570 5566 5562 5557 5552
5520 5530 5536 5543 5549 5554 5558 5562 5566 5571 5574 5578 5581 5583 5586 5588 5590 5591 5592 5593 5593 5594 5594 5593 5593 5592 5591 5590 5588 5587 5585 5583 5581 5578 5576 5573 5570 5566 5562 5558 5553 5549 5543 5538
5515 5523 5529 5537 5542 5546 5550 5555 5559 5563 5567 5570 5573 5576 5578 5580 5582 5583 5584 5585 5585 5585 5585 5585 5584 5583 5582 5580 5579 5577 5575 5573 5570 5568 5565 5562 5559 5555 5550 5546 5541 5535 5529 5523
5507 5514 5520 5526 5532 5538 5543 5547 5551 5555 5559 5562 5565 5568 5570 5572 5573 5575 5575 5576 5576 5576 5576 5575 5575 5574 5572 5571 5569 5567 5565 5563 5560 5557 5554 5551 5547 5543 5539 5534 5527 5521 5514 5507
5499 5506 5513 5519 5526 5531 5536 5540 5544 5548 5551 5554 5557 5560 5562 5564 5565 5566 5567 5567 5567 5567 5567 5566 5565 5564 5563 5561 5559 5557 5555 5552 5549 5546 5543 5539 5535 5531 5526 5521 5515 5508 5500 5491
5492 5499 5506 5512 5518 5523 5528 5533 5537 5540 5543 5546 5549 5551 5554 5555 5556 5557 5558 5558 5558 5558 5558 5557 5556 5555 5553 5551 5549 5547 5544 5542 5538 5535 5531 5527 5523 5518 5512 5506 5500 5493 5485 5476
5485 5492 5499 5505 5511 5516 5521 5525 5529 5532 5535 5538 5541 5543 5545 5546 5547 5548 5549 5549 5549 5549 5548 5548 5546 5545 5543 5541 5539 5536 5534 5530 5527 5523 5519 5514 5509 5504 5498 5491 5484 5476 5468 5459
5479 5485 5492 5498 5504 5509 5513 5518 5521 5525 5527 5530 5532 5534 5536 5537 5538 5539 5540 5540 5540 5540 5539 5538 5537 5535 5533 5531 5529 5526 5523 5519 5515 5511 5506 5501 5496 5489 5482 5475 5468 5459 5451 5441
5472 5479 5485 5491 5496 5501 5505 5510 5513 5516 5519 5522 5524 5526 5527 5529 5530 5530 5531 5531 5531 5530 5529 5528 5527 5525 5523 5520 5518 5515 5511 5507 5503 5498 5493 5487 5481 5474 5467 5459 5450 5442 5433 5423
5466 5472 5478 5483 5489 5493 5498 5502 5505 5508 5511 5513 5515 5517 5519 5520 5521 5521 5522 5522 5521 5521 5520 5518 5517 5515 5512 5509 5506 5503 5499 5495 5490 5485 5479 5473 5466 5458 5450 5442 5433 5424 5414 5405
5459 5466 5471 5477 5481 5486 5490 5494 5497 5500 5503 5505 5507 5509 5510 5511 5512 5512 5512 5512 5512 5511 5510 5508 5506 5504 5501 5498 5495 5491 5487 5482 5477 5471 5464 5457 5450 5442 5433 5424 5415 5406 5396 5386
5453 5459 5465 5470 5475 5479 5483 5486 5489 5492 5494 5497 5499 5500 5501 5502 5503 5503 5503 5503 5502 5501 5499 5498 5495 5493 5490 5487 5483 5478 5474 5469 5463 5456 5449 5442 5434 5425 5416 5407 5398 5388 5379 5369
5447 5453 5458 5463 5468 5472 5475 5479 5482 5484 5486 5488 5490 5491 5492 5493 5494 5494 5494 5493 5492 5491 5489 5487 5484 5481 5478 5474 5470 5466 5460 5454 5448 5441 5433 5425 5417 5408 5399 5390 5380 5371 5362 5354
5441 5446 5451 5456 5460 5464 5468 5471 5474 5476 5478 5480 5482 5483 5484 5484 5485 5485 5484 5483 5482 5480 5478 5475 5473 5470 5466 5462 5457 5452 5446 5440 5433 5425 5417 5408 5400 5391 5382 5373 5364 5355 5347 5339
5435 5440 5445 5449 5453 5457 5460 5463 5466 5468 5470 5472 5473 5474 5475 5475 5475 5475 5474 5473 5471 5469 5467 5464 5461 5457 5453 5449 5444 5438 5431 5424 5417 5409 5400 5392 5383 5374 5365 5356 5348 5341 5333 5327
5429 5434 5438 5442 5446 5450 5453 5455 5458 5460 5462 5463 5464 5465 5465 5466 5466 5465 5463 5462 5460 5458 5455 5452 5449 5445 5440 5435 5429 5423 5416 5409 5401 5393 5384 5376 5367 5358 5350 5342 5335 5328 5321 5315
5424 5428 5432 5436 5439 5443 5445 5448 5450 5452 5453 5454 5455 5456 5456 5456 5455 5454 5453 5451 5449 5447 5444 5440 5436 5432 5426 5421 5415 5408 5401 5393 5385 5377 5369 5361 5352 5344 5336 5329 5322 5316 5310 5304
5418 5422 5426 5429 5432 5435 5438 5440 5442 5444 5445 5446 5446 5446 5446 5446 5445 5444 5442 5440 5438 5435 5431 5427 5423 5418 5412 5406 5400 5393 5386 5378 5370 5362 5354 5346 5339 5331 5324 5318 5312 5306 5300 5295
Wind_Speed
48 47 47 45 44 44 44 42 41 38 36 33 33 32 32 30 29 27 27 26 26 26 26 27 27 28 28 28 29 30 30 31 32 32 33 34 35 36 37 38 40 41 42 42
48 48 48 48 46 44 43 42 40 38 35 31 32 33 32 31 29 27 26 25 25 26 26 26 27 27 27 28 29 29 30 30 31 32 33 33 35 36 38 39 40 41 42 42
47 47 48 51 47 44 42 41 39 38 33 32 34 33 32 31 29 27 26 25 25 25 26 27 27 27 27 28 28 29 30 30 31 32 33 34 35 37 38 40 41 42 42 44
45 46 50 46 44 43 41 39 38 37 34 34 33 33 32 31 29 27 26 25 25 25 26 26 27 27 27 28 29 29 29 30 31 32 34 35 37 38 39 40 41 42 43 44
46 47 46 44 42 40 39 38 36 35 34 34 33 33 31 29 29 27 26 25 25 25 26 26 26 27 27 27 28 29 29 30 31 33 34 35 37 38 39 40 41 42 44 45
47 46 45 41 38 37 38 38 34 34 34 33 34 33 29 29 28 27 26 25 25 25 26 26 26 27 27 27 28 30 30 32 33 34 35 36 37 38 40 41 42 44 45 47
46 44 42 40 37 35 37 33 31 33 33 32 32 30 28 28 27 26 26 26 25 25 25 26 26 27 28 28 30 31 32 33 34 35 36 37 38 39 40 42 43 45 46 47
46 45 41 37 36 34 31 31 31 30 30 29 29 28 27 27 26 26 25 25 25 26 26 26 27 28 28 30 31 32 33 34 35 36 37 37 39 40 42 43 45 46 47 48
44 42 38 36 34 32 31 30 29 28 28 28 27 27 27 27 27 26 26 26 26 26 27 28 28 29 30 31 32 33 34 35 36 36 37 38 40 41 42 44 45 46 48 50
43 42 39 36 33 32 32 30 29 28 27 27 27 27 28 28 28 27 27 27 27 27 28 29 29 30 31 32 33 33 34 35 36 37 38 39 40 42 43 44 46 48 49 51
43 40 38 36 32 31 31 30 28 28 27 27 27 27 28 28 28 28 28 28 29 29 29 30 30 31 32 33 34 34 35 36 36 37 39 40 41 42 44 45 47 49 51 54
40 38 36 34 33 32 30 30 29 29 28 28 28 28 28 28 28 28 29 29 30 30 31 31 32 32 33 34 34 35 36 36 37 38 39 40 42 43 45 47 49 51 54 56
38 37 37 35 35 34 32 31 30 30 29 29 28 28 28 27 28 29 29 30 31 31 32 32 32 33 33 34 34 35 36 37 38 39 40 41 43 45 47 49 51 53 56 59
38 37 36 36 35 34 33 31 30 31 31 30 30 29 29 29 29 29 30 30 31 31 32 32 32 33 33 34 34 35 37 38 39 40 41 43 45 47 49 51 53 56 59 62
39 38 37 36 36 35 33 32 31 30 30 30 30 30 30 30 30 30 31 31 31 31 32 32 33 33 34 35 36 37 38 39 40 42 44 45 47 49 52 54 57 59 62 64
38 37 37 36 35 34 33 32 31 30 30 30 30 30 30 30 30 30 30 31 31 31 32 32 33 34 35 36 37 38 39 40 42 44 45 47 49 52 55 57 60 62 64 66
38 37 36 35 34 33 32 31 31 31 30 29 29 29 29 29 30 30 31 31 31 32 33 33 34 35 36 37 38 39 40 42 44 45 47 50 52 55 57 60 62 64 67 69
38 36 36 35 34 33 32 31 31 30 29 29 29 29 29 29 30 30 31 31 32 33 33 34 35 36 37 38 39 40 42 44 46 47 50 53 55 58 60 63 65 67 69 71
38 37 36 35 34 34 33 31 31 30 30 29 29 29 29 30 30 31 31 32 32 33 34 35 36 37 38 39 41 42 44 46 48 50 53 55 58 60 63 65 67 68 70 71
36 36 35 35 34 33 32 31 31 30 30 29 29 30 30 30 30 31 31 32 33 34 35 36 37 38 39 41 42 44 46 48 50 53 56 58 61 63 65 66 68 69 70 68
34 34 33 33 33 32 31 30 30 29 29 29 29 30 30 30 30 31 32 33 34 35 36 37 38 39 41 42 44 46 48 50 53 56 58 61 63 64 66 67 69 69 67 64
33 33 33 32 32 31 29 29 28 28 28 29 29 30 30 30 31 32 33 34 35 36 37 38 39 41 42 43 45 48 51 53 56 59 61 62 64 65 67 67 67 65 62 58
30 31 32 32 31 30 29 28 28 28 29 29 29 30 30 31 31 32 33 34 36 37 38 39 40 42 43 45 48 50 53 56 58 61 62 63 65 66 66 65 63 60 56 52
29 30 30 30 30 29 28 28 28 29 29 29 29 30 30 31 32 33 34 35 36 37 38 40 41 43 45 48 50 53 55 58 60 61 63 64 64 63 62 60 58 55 50 47
28 28 29 29 28 28 28 28 28 28 28 29 30 30 31 32 33 34 35 36 37 38 39 41 43 45 48 50 53 55 57 59 61 62 62 62 61 60 58 56 52 48 45 43
26 26 26 26 27 27 27 27 28 28 28 29 30 30 31 32 33 34 35 36 37 39 41 43 45 48 50 52 54 56 58 60 61 60 60 59 58 56 54 50 46 44 42 40
26 26 26 26 27 27 28 28 28 28 29 29 30 31 32 33 33 34 35 37 38 40 43 45 47 49 52 54 56 58 59 59 59 58 57 56 54 51 48 45 43 41 40 37
Wind_Direction
227 230 234 234 235 236 239 242 244 246 249 252 258 262 263 265 267 270 271 271 271 270 270 269 269 269 270 271 271 272 273 273 274 275 275 277 278 279 281 282 284 286 288 290
225 226 231 235 233 234 237 239 242 244 246 250 254 258 262 265 267 269 270 271 270 269 269 268 269 270 271 272 273 274 275 276 276 277 278 279 280 281 282 284 286 288 289 291
224 225 228 232 233 235 237 239 242 244 245 247 251 256 259 263 266 268 269 269 269 268 268 269 270 271 272 273 274 276 278 278 278 279 279 280 281 282 284 285 287 288 290 292
224 225 229 231 233 236 238 239 241 243 244 247 250 254 257 261 265 266 267 267 267 268 268 269 271 273 274 275 276 278 279 280 280 281 281 281 283 284 285 286 288 289 291 292
224 227 230 230 231 234 238 239 240 242 243 246 249 253 256 260 262 263 264 265 267 268 269 270 272 274 276 276 277 278 280 281 282 282 283 284 285 286 286 288 289 290 292 293
223 227 230 230 232 234 238 239 239 242 244 246 249 253 256 257 258 260 261 264 267 268 270 271 273 275 276 277 279 279 280 281 282 283 285 286 286 287 288 289 290 291 293 294
222 226 229 230 232 233 237 239 240 242 244 247 249 251 252 254 256 258 260 263 266 269 271 272 274 275 277 278 280 280 281 282 284 285 286 286 287 288 289 290 291 292 293 295
223 226 228 231 233 234 237 239 241 242 242 244 246 248 250 252 255 258 260 262 265 269 271 273 274 276 278 280 281 282 283 284 285 285 286 287 288 289 290 291 292 293 294 296
227 228 230 232 233 233 235 238 239 239 240 242 244 247 250 252 255 257 260 263 266 270 272 274 275 277 279 281 283 283 284 285 285 286 287 288 289 290 291 292 293 294 296 297
224 226 229 231 232 233 234 236 237 239 240 243 245 248 251 253 255 258 260 264 267 271 274 276 277 278 281 282 284 285 286 286 287 288 288 289 290 291 292 293 295 296 297 298
223 225 227 228 229 230 233 235 236 237 239 243 246 249 252 254 257 259 262 266 269 272 275 277 278 280 282 284 285 286 287 288 288 289 290 290 291 293 294 295 297 298 299 300
220 222 224 224 225 228 232 234 236 238 240 244 247 250 253 255 259 261 264 267 270 273 275 277 279 281 283 285 286 287 288 289 290 291 292 293 294 295 296 297 298 299 300 302
218 220 222 221 223 227 230 234 238 241 243 245 248 251 254 257 261 263 266 269 271 273 275 278 280 282 284 286 287 288 289 291 292 293 293 294 296 297 298 299 300 301 302 303
219 221 223 224 226 228 232 236 239 242 244 246 249 252 255 258 262 264 267 270 272 274 276 278 281 283 285 286 288 289 291 292 293 294 295 296 297 298 299 301 302 303 304 304
218 221 223 226 228 230 233 236 238 241 243 246 249 253 256 259 262 265 267 270 273 275 277 279 282 284 285 287 289 291 292 293 294 295 297 298 299 300 302 303 304 304 305 305
217 221 224 227 229 230 232 235 238 241 245 248 251 254 258 261 263 266 268 270 273 276 278 280 282 284 286 288 290 292 293 294 296 297 299 300 301 302 303 304 305 306 306 307
218 221 224 228 230 231 233 237 241 243 246 249 252 255 258 261 264 266 268 271 274 276 279 281 283 285 288 290 292 293 295 296 298 299 301 302 303 304 305 306 307 307 307 308
218 222 225 229 231 233 235 239 243 246 248 250 253 255 258 261 264 267 270 272 274 277 279 282 284 287 289 291 293 295 296 298 299 301 302 304 305 306 307 307 308 308 309 309
220 223 227 230 233 235 238 242 244 246 249 252 253 255 258 261 264 267 270 272 275 277 280 283 286 289 291 292 294 296 298 300 301 303 304 305 306 307 308 308 309 310 310 310
221 224 227 230 233 236 240 243 244 247 250 251 253 256 259 262 265 267 270 273 276 279 282 285 288 290 292 294 296 298 300 302 303 305 306 307 307 308 309 310 310 310 311 311
220 222 226 229 233 237 240 243 246 248 249 251 254 257 260 262 264 268 271 275 278 281 284 287 289 292 294 296 298 300 302 304 305 306 307 308 308 309 310 310 311 311 312 311
220 223 226 229 233 237 240 243 245 247 249 252 255 258 260 263 266 269 273 277 280 284 286 289 291 293 295 298 300 302 304 305 307 308 308 309 309 310 310 311 311 312 312 311
219 223 226 230 233 236 239 241 244 248 251 254 256 258 261 265 268 272 275 279 283 285 288 290 293 295 297 299 301 304 305 307 308 309 309 310 310 311 311 312 312 312 312 311
220 224 228 231 233 235 238 241 246 249 251 254 256 259 263 267 270 274 278 282 285 287 290 292 295 297 299 301 303 305 307 308 309 310 310 310 311 312 312 313 313 312 312 311
223 226 228 229 231 234 238 241 245 249 253 256 259 262 265 269 273 277 281 284 286 289 292 294 297 299 301 303 305 307 308 309 310 310 311 312 313 313 313 313 313 312 312 312
222 225 228 229 232 235 239 243 248 252 255 258 262 265 269 273 276 280 282 285 288 291 294 297 299 301 303 305 307 308 309 310 310 311 312 313 313 313 313 313 313 313 313 313
223 228 231 233 236 239 243 246 250 254 258 261 265 268 272 275 278 281 284 287 290 294 296 299 301 303 304 306 308 309 310 310 311 312 312 313 314 314 313 313 313 314 314 314